Вернуться в каталог

ONEWEB-0308

АктивенСвязьPO
NORAD 49094·PAYLOAD·🇬🇧 United Kingdom

Запущен Aug 21, 2021 с Baikonur Cosmodrome

Loading…

Ближайшие Пролёты (ближайшие 24 часа)

TLE

СвежийSource: CelesTrak SupGP

Эпоха: Sep 14, 2026, 23:01 UTC

1 49094C 21075V   26257.95919399 -.00000068  00000+0 -18832-3 0  2574
2 49094  87.8997 332.8413 0001891  99.8418 296.5471 13.12446011    16

Отслеживайте ONEWEB-0308 в реальном времени с AllMySat

Download on the App Store